UO-11
1 14781U 84021B 15148.12146606 .00000406 00000-0 57200-4 0 9999
2 14781 097.8033 205.6961 0009766 130.8005 229.4057 14.82386558679053
AO-16
1 20439U 90005D 15147.80794545 .00000060 00000-0 38018-4 0 9992
2 20439 098.5396 084.3031 0010020 216.1651 169.7309 14.32542579323829
LO-19
1 20442U 90005G 15147.39230864 .00000056 00000-0 36474-4 0 9998
2 20442 098.5106 083.5136 0011167 204.9515 155.1130 14.32735270323964
AO-27
1 22825U 93061C 15148.95847317 .00000061 00000-0 41001-4 0 9998
2 22825 098.7072 099.0638 0008686 013.0865 030.8150 14.29880673130199
IO-26
1 22826U 93061D 15148.52107886 .00000049 00000-0 36276-4 0 9996
2 22826 098.7014 098.7962 0009074 006.0354 354.0936 14.30197273130270
